| time (UTC) | temp C | wind direction | speed KPH | gust KPH | rain 1hr cm | rain 24hr cm | rain mn cm | humidity % | barometer mb |
| 20260504201531 | 22 | 190 | 3.2 | 16.1 | 0.00 | 0.00 | 0.00 | 35 | 1010.6 |
| 20260504200024 | 21 | 165 | 3.2 | 11.3 | 0.00 | 0.00 | 0.00 | 35 | 1010.8 |
| 20260504194521 | 22 | 219 | 3.2 | 12.9 | 0.00 | 0.00 | 0.00 | 34 | 1010.8 |
| 20260504193016 | 21 | 218 | 0.0 | 9.7 | 0.00 | 0.00 | 0.00 | 36 | 1010.9 |
| 20260504191518 | 21 | 174 | 3.2 | 14.5 | 0.00 | 0.00 | 0.00 | 37 | 1011.0 |
| 20260504190013 | 21 | 157 | 3.2 | 11.3 | 0.00 | 0.00 | 0.00 | 35 | 1011.1 |
| 20260504184511 | 21 | 167 | 3.2 | 22.5 | 0.00 | 0.00 | 0.00 | 33 | 1011.4 |
| 20260504183028 | 21 | 128 | 1.6 | 14.5 | 0.00 | 0.00 | 0.00 | 34 | 1011.5 |
| 20260504181527 | 21 | 159 | 3.2 | 19.3 | 0.00 | 0.00 | 0.00 | 36 | 1011.8 |
| 20260504180024 | 21 | 179 | 3.2 | 9.7 | 0.00 | 0.00 | 0.00 | 35 | 1011.9 |
| 20260504174522 | 21 | 281 | 0.0 | 11.3 | 0.00 | 0.00 | 0.00 | 38 | 1012.1 |
| 20260504173031 | 21 | 293 | 3.2 | 14.5 | 0.00 | 0.00 | 0.00 | 33 | 1012.4 |
| 20260504171522 | 21 | 232 | 1.6 | 9.7 | 0.00 | 0.00 | 0.00 | 32 | 1012.6 |
| 20260504081515 | 4 | 210 | 0.0 | 0.0 | 0.00 | 0.00 | 0.00 | 87 | 1015.3 |
| 20260504044536 | 5 | 208 | 0.0 | 0.0 | 0.00 | 0.00 | 0.00 | 79 | 1015.2 |
| 20260504043021 | 5 | 208 | 0.0 | 0.0 | 0.00 | 0.00 | 0.00 | 79 | 1014.9 |
| 20260504041529 | 5 | 208 | 0.0 | 0.0 | 0.00 | 0.00 | 0.00 | 78 | 1014.8 |
| 20260504040032 | 5 | 208 | 0.0 | 0.0 | 0.00 | 0.00 | 0.00 | 75 | 1014.6 |
| 20260504034538 | 6 | 208 | 0.0 | 0.0 | 0.00 | 0.00 | 0.00 | 75 | 1014.5 |
| 20260504033036 | 6 | 208 | 0.0 | 0.0 | 0.00 | 0.00 | 0.00 | 74 | 1014.5 |
| 20260504031503 | 6 | 208 | 0.0 | 0.0 | 0.00 | 0.00 | 0.00 | 71 | 1014.4 |
| 20260504030004 | 6 | 208 | 0.0 | 0.0 | 0.00 | 0.00 | 0.00 | 70 | 1014.4 |
| 20260504024505 | 7 | 208 | 0.0 | 0.0 | 0.00 | 0.00 | 0.00 | 68 | 1014.4 |
| 20260504023004 | 7 | 208 | 0.0 | 0.0 | 0.00 | 0.00 | 0.00 | 65 | 1014.5 |
| 20260504021504 | 7 | 208 | 0.0 | 0.0 | 0.00 | 0.00 | 0.00 | 65 | 1014.4 |
| 20260504020008 | 7 | 208 | 0.0 | 0.0 | 0.00 | 0.00 | 0.00 | 62 | 1014.3 |
| 20260504014505 | 8 | 208 | 0.0 | 0.0 | 0.00 | 0.00 | 0.00 | 60 | 1014.2 |
| 20260504013009 | 8 | 208 | 0.0 | 0.0 | 0.00 | 0.00 | 0.00 | 59 | 1014.1 |
| 20260504011504 | 9 | 208 | 0.0 | 0.0 | 0.00 | 0.00 | 0.00 | 55 | 1013.9 |
| 20260504010008 | 10 | 208 | 0.0 | 0.0 | 0.00 | 0.00 | 0.00 | 52 | 1013.8 |
| 20260504004510 | 10 | 208 | 0.0 | 0.0 | 0.00 | 0.00 | 0.00 | 51 | 1013.7 |
| 20260504003007 | 11 | 208 | 0.0 | 0.0 | 0.00 | 0.00 | 0.00 | 48 | 1013.4 |
| 20260504001508 | 11 | 208 | 0.0 | 0.0 | 0.00 | 0.00 | 0.00 | 43 | 1013.1 |
| 20260504000009 | 12 | 208 | 0.0 | 1.6 | 0.00 | 0.00 | 0.00 | 40 | 1013.1 |
| 20260503234508 | 13 | 221 | 0.0 | 3.2 | 0.00 | 0.00 | 0.00 | 37 | 1013.0 |
| 20260503233009 | 13 | 335 | 0.0 | 4.8 | 0.00 | 0.00 | 0.00 | 38 | 1012.8 |
| 20260503231510 | 13 | 311 | 0.0 | 14.5 | 0.00 | 0.00 | 0.00 | 35 | 1012.8 |
| 20260503230010 | 14 | 291 | 0.0 | 9.7 | 0.00 | 0.00 | 0.00 | 34 | 1012.7 |
| 20260503224507 | 15 | 314 | 1.6 | 4.8 | 0.00 | 0.00 | 0.00 | 33 | 1012.7 |
| 20260503223012 | 15 | 290 | 1.6 | 11.3 | 0.00 | 0.00 | 0.00 | 33 | 1012.5 |
| 20260503221510 | 15 | 138 | 3.2 | 16.1 | 0.00 | 0.00 | 0.00 | 31 | 1012.5 |
| 20260503220012 | 15 | 289 | 3.2 | 11.3 | 0.00 | 0.00 | 0.00 | 31 | 1012.5 |
| 20260503214514 | 15 | 303 | 4.8 | 12.9 | 0.00 | 0.00 | 0.00 | 31 | 1012.5 |
| 20260503213025 | 15 | 96 | 3.2 | 16.1 | 0.00 | 0.00 | 0.00 | 30 | 1012.4 |
| 20260503211518 | 15 | 311 | 1.6 | 14.5 | 0.00 | 0.00 | 0.00 | 32 | 1012.5 |
| 20260503210014 | 15 | 290 | 1.6 | 12.9 | 0.00 | 0.00 | 0.00 | 32 | 1012.6 |
| 20260503204515 | 15 | 284 | 1.6 | 17.7 | 0.00 | 0.00 | 0.00 | 35 | 1012.6 |
| 20260503203016 | 15 | 278 | 3.2 | 11.3 | 0.00 | 0.00 | 0.00 | 34 | 1012.5 |